When you browse on this site, cookies collect data to enhance your experience and personalize the content and advertising you see.
Visit our Privacy Policy to learn more. By continuing to use the site, you agree to this use of cookies and data.
  • In Spain
  • List of Countries
  • For 7 days
  • Water Temperature
  • Satellite Maps
  • Weather Map
  • Weather Widgets
  • user-avatar
    Login

    Hourly Weather Ondjiwa

    Today, 22 March, Friday

    Time Temperature Precipitation Wind Pressure Humidity
    00:00 +27°C° 0 mm 2 mps 666 mmHg 35%
    01:00 +27°C° 0 mm 2 mps 666 mmHg 35%
    02:00 +26°C° 0 mm 2 mps 666 mmHg 39%
    03:00 +25°C° 0 mm 2 mps 666 mmHg 43%
    04:00 +24°C° 0 mm 2 mps 665 mmHg 46%
    05:00 +24°C° 0 mm 2 mps 666 mmHg 47%
    06:00 +25°C° 0 mm 1 mps 667 mmHg 48%
    07:00 +25°C° 0 mm 1 mps 667 mmHg 48%
    08:00 +28°C° 0 mm 2 mps 668 mmHg 43%
    09:00 +30°C° 0 mm 2 mps 669 mmHg 38%
    10:00 +34°C° 0 mm 3 mps 669 mmHg 33%
    11:00 +36°C° 0 mm 2 mps 669 mmHg 29%
    12:00 +38°C° 0 mm 2 mps 669 mmHg 25%
    13:00 +39°C° 0 mm 1 mps 669 mmHg 21%
    14:00 +37°C° 0 mm 1 mps 668 mmHg 22%
    15:00 +36°C° 0 mm 1 mps 667 mmHg 23%
    16:00 +35°C° 0 mm 1 mps 667 mmHg 24%
    17:00 +34°C° 0 mm 1 mps 667 mmHg 27%
    18:00 +32°C° 0 mm 1 mps 667 mmHg 30%
    19:00 +30°C° 0 mm 1 mps 667 mmHg 32%
    20:00 +29°C° 0 mm 1 mps 667 mmHg 36%
    21:00 +28°C° 0 mm 1 mps 667 mmHg 40%
    22:00 +27°C° 0 mm 2 mps 667 mmHg 44%
    23:00 +27°C° 0 mm 2 mps 667 mmHg 44%

    Tomorrow, 23 March, Saturday

    Time Temperature Precipitation Wind Pressure Humidity
    00:00 +27°C° 0 mm 2 mps 667 mmHg 44%
    01:00 +27°C° 0 mm 2 mps 667 mmHg 44%
    02:00 +26°C° 0 mm 2 mps 667 mmHg 48%
    03:00 +25°C° 0 mm 2 mps 666 mmHg 52%
    04:00 +24°C° 0 mm 2 mps 666 mmHg 56%
    05:00 +25°C° 0 mm 2 mps 666 mmHg 56%
    06:00 +25°C° 0 mm 2 mps 667 mmHg 56%
    07:00 +25°C° 0 mm 1 mps 667 mmHg 56%
    08:00 +28°C° 0 mm 2 mps 668 mmHg 47%
    09:00 +31°C° 0 mm 2 mps 669 mmHg 39%
    10:00 +35°C° 0 mm 2 mps 670 mmHg 31%
    11:00 +36°C° 0 mm 2 mps 669 mmHg 28%
    12:00 +38°C° 0 mm 2 mps 669 mmHg 24%
    13:00 +39°C° 0 mm 2 mps 668 mmHg 20%
    14:00 +38°C° 0 mm 2 mps 668 mmHg 22%
    15:00 +37°C° 0 mm 2 mps 667 mmHg 24%
    16:00 +36°C° 0 mm 2 mps 666 mmHg 26%
    17:00 +33°C° 0 mm 1 mps 666 mmHg 28%
    18:00 +32°C° 0 mm 1 mps 666 mmHg 30%
    19:00 +30°C° 0 mm 1 mps 666 mmHg 31%
    20:00 +30°C° 0 mm 1 mps 667 mmHg 33%
    21:00 +30°C° 0 mm 1 mps 667 mmHg 34%
    22:00 +29°C° 0 mm 2 mps 668 mmHg 35%
    23:00 +28°C° 0 mm 2 mps 667 mmHg 43%

    Day after tomorrow, 24 March, Sunday

    Time Temperature Precipitation Wind Pressure Humidity
    00:00 +27°C° 0 mm 3 mps 667 mmHg 50%
    01:00 +26°C° 0 mm 3 mps 667 mmHg 58%
    02:00 +25°C° 0 mm 4 mps 666 mmHg 59%
    03:00 +25°C° 0 mm 4 mps 666 mmHg 59%
    04:00 +23°C° 0 mm 4 mps 666 mmHg 60%
    05:00 +25°C° 0 mm 3 mps 666 mmHg 60%
    06:00 +25°C° 0 mm 2 mps 667 mmHg 60%
    07:00 +25°C° 0 mm 1 mps 667 mmHg 60%
    08:00 +27°C° 0 mm 1 mps 668 mmHg 52%
    09:00 +29°C° 0 mm 1 mps 668 mmHg 43%
    10:00 +32°C° 0 mm 1 mps 669 mmHg 34%
    11:00 +35°C° 0 mm 2 mps 668 mmHg 30%
    12:00 +37°C° 0 mm 2 mps 668 mmHg 25%
    13:00 +38°C° 0 mm 2 mps 668 mmHg 21%
    14:00 +38°C° 0 mm 2 mps 667 mmHg 22%
    15:00 +36°C° 0 mm 1 mps 666 mmHg 24%
    16:00 +35°C° 0 mm 1 mps 665 mmHg 26%
    17:00 +33°C° 0 mm 1 mps 666 mmHg 27%
    18:00 +32°C° 0 mm 1 mps 666 mmHg 29%
    19:00 +31°C° 0 mm 1 mps 666 mmHg 31%
    20:00 +30°C° 0 mm 1 mps 666 mmHg 33%
    21:00 +29°C° 0 mm 1 mps 666 mmHg 35%
    22:00 +28°C° 0 mm 1 mps 667 mmHg 37%
    23:00 +28°C° 0 mm 2 mps 666 mmHg 39%

    25 March, Monday

    Time Temperature Precipitation Wind Pressure Humidity
    00:00 +27°C° 0 mm 2 mps 666 mmHg 42%
    01:00 +26°C° 0 mm 2 mps 666 mmHg 45%
    02:00 +26°C° 0 mm 2 mps 665 mmHg 45%
    03:00 +26°C° 0 mm 2 mps 665 mmHg 44%
    04:00 +26°C° 0 mm 2 mps 665 mmHg 44%
    05:00 +26°C° 0 mm 2 mps 666 mmHg 43%
    06:00 +26°C° 0 mm 2 mps 666 mmHg 43%
    07:00 +26°C° 0 mm 2 mps 667 mmHg 43%
    08:00 +29°C° 0 mm 2 mps 667 mmHg 36%
    09:00 +31°C° 0 mm 2 mps 668 mmHg 30%
    10:00 +35°C° 0 mm 3 mps 669 mmHg 23%
    11:00 +37°C° 0 mm 2 mps 668 mmHg 21%
    12:00 +39°C° 0 mm 1 mps 668 mmHg 20%
    13:00 +40°C° 0 mm 1 mps 667 mmHg 18%
    14:00 +39°C° 0 mm 1 mps 667 mmHg 21%
    15:00 +37°C° 0 mm 2 mps 666 mmHg 23%
    16:00 +36°C° 0 mm 3 mps 665 mmHg 25%
    17:00 +35°C° 0 mm 2 mps 665 mmHg 28%
    18:00 +32°C° 0 mm 2 mps 665 mmHg 30%
    19:00 +31°C° 0 mm 2 mps 666 mmHg 33%
    20:00 +30°C° 0.2 mm 2 mps 666 mmHg 36%
    21:00 +30°C° 0.2 mm 2 mps 667 mmHg 39%
    22:00 +29°C° 0.2 mm 2 mps 667 mmHg 42%
    23:00 +28°C° 1 mm 2 mps 667 mmHg 49%

    26 March, Tuesday

    Time Temperature Precipitation Wind Pressure Humidity
    00:00 +26°C° 1 mm 1 mps 667 mmHg 56%
    01:00 +25°C° 1 mm 1 mps 667 mmHg 64%
    02:00 +24°C° 0.3 mm 2 mps 667 mmHg 68%
    03:00 +23°C° 0.3 mm 2 mps 666 mmHg 71%
    04:00 +23°C° 0.3 mm 2 mps 666 mmHg 75%
    05:00 +23°C° 0.1 mm 2 mps 666 mmHg 75%
    06:00 +21°C° 0.1 mm 2 mps 667 mmHg 76%
    07:00 +21°C° 0.1 mm 2 mps 667 mmHg 76%
    08:00 +24°C° 0 mm 2 mps 667 mmHg 70%
    09:00 +25°C° 0 mm 2 mps 668 mmHg 63%
    10:00 +27°C° 0 mm 1 mps 668 mmHg 56%
    11:00 +29°C° 0 mm 1 mps 668 mmHg 48%
    12:00 +32°C° 0 mm 1 mps 668 mmHg 40%
    13:00 +33°C° 0 mm 0 mps 668 mmHg 32%
    14:00 +35°C° 0 mm 1 mps 667 mmHg 31%
    15:00 +35°C° 0 mm 1 mps 667 mmHg 29%
    16:00 +35°C° 0 mm 1 mps 666 mmHg 28%
    17:00 +32°C° 0.7 mm 2 mps 666 mmHg 35%
    18:00 +30°C° 0.7 mm 2 mps 666 mmHg 42%
    19:00 +28°C° 0.7 mm 2 mps 666 mmHg 49%
    20:00 +27°C° 0.1 mm 2 mps 667 mmHg 50%
    21:00 +27°C° 0.1 mm 2 mps 667 mmHg 50%
    22:00 +27°C° 0.1 mm 2 mps 668 mmHg 50%
    23:00 +26°C° 0.9 mm 2 mps 667 mmHg 58%

    27 March, Wednesday

    Time Temperature Precipitation Wind Pressure Humidity
    00:00 +25°C° 0.9 mm 2 mps 667 mmHg 65%
    01:00 +23°C° 0.9 mm 1 mps 667 mmHg 73%
    02:00 +23°C° 0.3 mm 1 mps 667 mmHg 73%
    03:00 +23°C° 0.3 mm 1 mps 667 mmHg 73%
    04:00 +23°C° 0.3 mm 1 mps 667 mmHg 73%
    05:00 +23°C° 0.2 mm 1 mps 667 mmHg 73%
    06:00 +23°C° 0.2 mm 1 mps 667 mmHg 74%
    07:00 +23°C° 0.2 mm 1 mps 668 mmHg 74%
    08:00 +25°C° 0 mm 1 mps 668 mmHg 67%
    09:00 +27°C° 0 mm 1 mps 669 mmHg 59%
    10:00 +29°C° 0 mm 1 mps 669 mmHg 52%
    11:00 +31°C° 0 mm 1 mps 669 mmHg 44%
    12:00 +33°C° 0 mm 1 mps 669 mmHg 36%
    13:00 +36°C° 0 mm 1 mps 669 mmHg 29%
    14:00 +35°C° 0 mm 1 mps 668 mmHg 30%
    15:00 +35°C° 0 mm 2 mps 668 mmHg 31%
    16:00 +35°C° 0 mm 2 mps 667 mmHg 32%
    17:00 +32°C° 0 mm 2 mps 667 mmHg 35%
    18:00 +30°C° 0 mm 2 mps 667 mmHg 38%
    19:00 +29°C° 0 mm 1 mps 667 mmHg 42%
    20:00 +28°C° 0 mm 1 mps 668 mmHg 44%
    21:00 +27°C° 0 mm 1 mps 668 mmHg 46%
    22:00 +27°C° 0 mm 1 mps 668 mmHg 48%
    23:00 +26°C° 0 mm 1 mps 668 mmHg 51%
    Show more